Location: Campillo
(40.8621°N, 4.2488°W)
Time: 17:14:42
(UTC+00:00)

Cosmos 158 Rocket - Pass Details

Date: 25 September 2021
Orbit: 699 x 792 km, 74.0° (Epoch: 24 October)

Event Time Altitude Azimuth Distance (km) Brightness Sun altitude
Rises 19:36:36 0° 346° (NNW) 3,161 7.6 -17.3°
Reaches altitude 10° 19:39:06 10° 353° (N) 2,221 6.7 -17.7°
Maximum altitude 19:43:52 44° 66° (ENE) 988 4.2 -18.6°
Enters shadow 19:44:58 38° 100° (E) 1,086 4.3 -18.8°
